Time,TemperatureF,DewpointF,PressureIn,WindDirection,WindDirectionDegrees,WindSpeedMPH,WindSpeedGustMPH,Humidity,HourlyPrecipIn,Conditions,Clouds,dailyrainin,SolarRadiationWatts/m^2,SoftwareType,DateUTC
2013-12-15 00:02:00,5.0,-1.0,-100.00,ENE,62,8.0,12.0,75,0.00,,,0.00,0.000000,,2013-12-15 05:02:00,
2013-12-15 00:12:00,5.0,-1.0,-100.00,ENE,62,8.0,12.0,75,0.00,,,0.00,0.000000,,2013-12-15 05:12:00,
2013-12-15 00:42:00,5.0,-1.0,-100.00,ENE,65,6.0,12.0,75,0.00,,,0.00,0.000000,,2013-12-15 05:42:00,
2013-12-15 00:53:00,5.0,-1.0,-100.00,ENE,65,6.0,12.0,75,0.00,,,0.00,0.000000,,2013-12-15 05:53:00,
2013-12-15 01:02:00,5.0,-1.0,-100.00,ENE,65,6.0,12.0,75,0.00,,,0.00,0.000000,,2013-12-15 06:02:00,
2013-12-15 01:12:00,5.0,-1.0,-100.00,ENE,65,6.0,12.0,75,0.00,,,0.00,0.000000,,2013-12-15 06:12:00,
2013-12-15 01:42:00,5.0,-1.0,-100.00,ENE,64,5.0,10.0,76,0.00,,,0.00,0.000000,,2013-12-15 06:42:00,
2013-12-15 01:52:00,5.0,-1.0,-100.00,ENE,64,5.0,10.0,76,0.00,,,0.00,0.000000,,2013-12-15 06:52:00,
2013-12-15 02:02:00,5.0,-1.0,-100.00,ENE,64,5.0,10.0,76,0.00,,,0.00,0.000000,,2013-12-15 07:02:00,
2013-12-15 02:11:00,5.0,-1.0,-100.00,ENE,64,5.0,10.0,76,0.00,,,0.00,0.000000,,2013-12-15 07:11:00,
2013-12-15 02:42:00,5.0,-1.0,-100.00,ENE,71,6.0,9.0,76,0.00,,,0.00,0.000000,,2013-12-15 07:42:00,
2013-12-15 02:52:00,5.0,-1.0,-100.00,ENE,71,6.0,9.0,76,0.00,,,0.00,0.000000,,2013-12-15 07:52:00,
2013-12-15 03:02:00,5.0,-1.0,-100.00,ENE,71,6.0,9.0,76,0.00,,,0.00,0.000000,,2013-12-15 08:02:00,
2013-12-15 03:11:00,5.0,-1.0,-100.00,ENE,71,6.0,9.0,76,0.00,,,0.00,0.000000,,2013-12-15 08:11:00,
2013-12-15 03:42:00,5.0,-1.0,-100.00,ENE,72,5.0,8.0,76,0.00,,,0.00,0.000000,,2013-12-15 08:42:00,
2013-12-15 03:52:00,5.0,-1.0,-100.00,ENE,72,5.0,8.0,76,0.00,,,0.00,0.000000,,2013-12-15 08:52:00,
2013-12-15 04:03:00,5.0,-1.0,-100.00,ENE,72,5.0,8.0,76,0.00,,,0.00,0.000000,,2013-12-15 09:03:00,
2013-12-15 04:11:00,5.0,-1.0,-100.00,ENE,72,5.0,8.0,76,0.00,,,0.00,0.000000,,2013-12-15 09:11:00,
2013-12-15 04:43:00,5.0,-1.0,-100.00,ENE,71,6.0,9.0,77,0.00,,,0.00,0.000000,,2013-12-15 09:43:00,
2013-12-15 04:53:00,5.0,-1.0,-100.00,ENE,71,6.0,9.0,77,0.00,,,0.00,0.000000,,2013-12-15 09:53:00,
2013-12-15 05:03:00,5.0,-1.0,-100.00,ENE,71,6.0,9.0,77,0.00,,,0.00,0.000000,,2013-12-15 10:03:00,
2013-12-15 05:13:00,5.0,-1.0,-100.00,ENE,71,6.0,9.0,77,0.00,,,0.00,0.000000,,2013-12-15 10:13:00,
2013-12-15 05:43:00,5.0,-1.0,-100.00,ENE,72,6.0,9.0,77,0.00,,,0.00,0.000000,,2013-12-15 10:43:00,
2013-12-15 05:53:00,5.0,-1.0,-100.00,ENE,72,6.0,9.0,77,0.00,,,0.00,0.000000,,2013-12-15 10:53:00,
2013-12-15 06:02:00,5.0,-1.0,-100.00,ENE,72,6.0,9.0,77,0.00,,,0.00,0.000000,,2013-12-15 11:02:00,
2013-12-15 06:12:00,5.0,-1.0,-100.00,ENE,72,6.0,9.0,77,0.00,,,0.00,0.000000,,2013-12-15 11:12:00,
2013-12-15 06:43:00,5.0,-1.0,-100.00,ENE,73,6.0,9.0,77,0.00,,,0.00,0.000000,,2013-12-15 11:43:00,
2013-12-15 06:52:00,5.0,-1.0,-100.00,ENE,73,6.0,9.0,77,0.00,,,0.00,0.000000,,2013-12-15 11:52:00,
2013-12-15 07:02:00,5.0,-1.0,-100.00,ENE,73,6.0,9.0,77,0.00,,,0.00,0.000000,,2013-12-15 12:02:00,
2013-12-15 07:12:00,5.0,-1.0,-100.00,ENE,73,6.0,9.0,77,0.00,,,0.00,0.000000,,2013-12-15 12:12:00,
2013-12-15 07:42:00,5.0,-1.0,-100.00,ENE,72,7.0,10.0,77,0.00,,,0.00,0.000000,,2013-12-15 12:42:00,
2013-12-15 07:52:00,5.0,-1.0,-100.00,ENE,72,7.0,10.0,77,0.00,,,0.00,0.000000,,2013-12-15 12:52:00,
2013-12-15 08:02:00,5.0,-1.0,-100.00,ENE,72,7.0,10.0,77,0.00,,,0.00,0.000000,,2013-12-15 13:02:00,
2013-12-15 08:11:00,5.0,-1.0,-100.00,ENE,72,7.0,10.0,77,0.00,,,0.00,0.000000,,2013-12-15 13:11:00,
2013-12-15 08:42:00,5.0,0.0,-100.00,ENE,70,7.0,10.0,78,0.00,,,0.00,0.000000,,2013-12-15 13:42:00,
2013-12-15 08:52:00,5.0,0.0,-100.00,ENE,70,7.0,10.0,78,0.00,,,0.00,0.000000,,2013-12-15 13:52:00,
2013-12-15 09:02:00,5.0,0.0,-100.00,ENE,70,7.0,10.0,78,0.00,,,0.00,0.000000,,2013-12-15 14:02:00,
2013-12-15 09:11:00,5.0,0.0,-100.00,ENE,70,7.0,10.0,78,0.00,,,0.00,0.000000,,2013-12-15 14:11:00,
2013-12-15 09:42:00,5.0,-1.0,-100.00,ENE,58,7.0,10.0,77,0.00,,,0.00,21.000000,,2013-12-15 14:42:00,
2013-12-15 09:52:00,5.0,-1.0,-100.00,ENE,58,7.0,10.0,77,0.00,,,0.00,21.000000,,2013-12-15 14:52:00,
2013-12-15 10:02:00,5.0,-1.0,-100.00,ENE,58,7.0,10.0,77,0.00,,,0.00,21.000000,,2013-12-15 15:02:00,
2013-12-15 10:12:00,5.0,-1.0,-100.00,ENE,58,7.0,10.0,77,0.00,,,0.00,21.000000,,2013-12-15 15:12:00,
2013-12-15 10:43:00,6.0,0.0,-100.00,ENE,61,7.0,10.0,76,0.00,,,0.00,81.000000,,2013-12-15 15:43:00,
2013-12-15 10:54:00,6.0,0.0,-100.00,ENE,61,7.0,10.0,76,0.00,,,0.00,81.000000,,2013-12-15 15:54:00,
2013-12-15 11:04:00,6.0,0.0,-100.00,ENE,61,7.0,10.0,76,0.00,,,0.00,81.000000,,2013-12-15 16:04:00,
2013-12-15 11:13:00,6.0,0.0,-100.00,ENE,61,7.0,10.0,76,0.00,,,0.00,81.000000,,2013-12-15 16:13:00,
2013-12-15 11:43:00,7.0,1.0,-100.00,ENE,61,7.0,10.0,75,0.00,,,0.00,149.000000,,2013-12-15 16:43:00,
2013-12-15 11:53:00,7.0,1.0,-100.00,ENE,61,7.0,10.0,75,0.00,,,0.00,149.000000,,2013-12-15 16:53:00,
2013-12-15 12:02:00,7.0,1.0,-100.00,ENE,61,7.0,10.0,75,0.00,,,0.00,149.000000,,2013-12-15 17:02:00,
2013-12-15 12:12:00,7.0,1.0,-100.00,ENE,61,7.0,10.0,75,0.00,,,0.00,149.000000,,2013-12-15 17:12:00,
2013-12-15 12:43:00,8.0,1.0,-100.00,NE,45,6.0,8.0,74,0.00,,,0.00,208.000000,,2013-12-15 17:43:00,
2013-12-15 12:52:00,8.0,1.0,-100.00,NE,45,6.0,8.0,74,0.00,,,0.00,208.000000,,2013-12-15 17:52:00,
2013-12-15 13:02:00,8.0,1.0,-100.00,NE,45,6.0,8.0,74,0.00,,,0.00,208.000000,,2013-12-15 18:02:00,
2013-12-15 13:12:00,8.0,1.0,-100.00,NE,45,6.0,8.0,74,0.00,,,0.00,208.000000,,2013-12-15 18:12:00,
2013-12-15 13:42:00,10.0,3.0,-100.00,NE,44,6.0,7.0,74,0.00,,,0.00,229.000000,,2013-12-15 18:42:00,
2013-12-15 13:52:00,10.0,3.0,-100.00,NE,44,6.0,7.0,74,0.00,,,0.00,229.000000,,2013-12-15 18:52:00,
2013-12-15 14:02:00,10.0,3.0,-100.00,NE,44,6.0,7.0,74,0.00,,,0.00,229.000000,,2013-12-15 19:02:00,
2013-12-15 14:11:00,10.0,3.0,-100.00,NE,44,6.0,7.0,74,0.00,,,0.00,229.000000,,2013-12-15 19:11:00,
2013-12-15 14:42:00,11.0,4.0,-100.00,North,8,4.0,8.0,73,0.00,,,0.00,230.000000,,2013-12-15 19:42:00,
2013-12-15 14:53:00,11.0,4.0,-100.00,North,8,4.0,8.0,73,0.00,,,0.00,230.000000,,2013-12-15 19:53:00,
2013-12-15 15:02:00,11.0,4.0,-100.00,North,8,4.0,8.0,73,0.00,,,0.00,230.000000,,2013-12-15 20:02:00,
2013-12-15 15:11:00,11.0,4.0,-100.00,North,8,4.0,8.0,73,0.00,,,0.00,230.000000,,2013-12-15 20:11:00,
2013-12-15 15:52:00,11.0,5.0,-100.00,NNW,344,3.0,6.0,75,0.00,,,0.00,198.000000,,2013-12-15 20:52:00,
2013-12-15 16:02:00,11.0,5.0,-100.00,NNW,344,3.0,6.0,75,0.00,,,0.00,198.000000,,2013-12-15 21:02:00,
2013-12-15 16:11:00,11.0,5.0,-100.00,NNW,344,3.0,6.0,75,0.00,,,0.00,198.000000,,2013-12-15 21:11:00,
2013-12-15 16:43:00,9.0,4.0,-100.00,NNE,24,1.0,6.0,78,0.00,,,0.00,79.000000,,2013-12-15 21:43:00,
2013-12-15 16:54:00,9.0,4.0,-100.00,NNE,24,1.0,6.0,78,0.00,,,0.00,79.000000,,2013-12-15 21:54:00,
2013-12-15 17:03:00,9.0,4.0,-100.00,NNE,24,1.0,6.0,78,0.00,,,0.00,79.000000,,2013-12-15 22:03:00,
2013-12-15 17:12:00,9.0,4.0,-100.00,NNE,24,1.0,6.0,78,0.00,,,0.00,79.000000,,2013-12-15 22:12:00,
2013-12-15 17:43:00,8.0,3.0,-100.00,WNW,300,2.0,3.0,81,0.00,,,0.00,18.000000,,2013-12-15 22:43:00,
2013-12-15 17:53:00,8.0,3.0,-100.00,WNW,300,2.0,3.0,81,0.00,,,0.00,18.000000,,2013-12-15 22:53:00,
2013-12-15 18:02:00,8.0,3.0,-100.00,WNW,300,2.0,3.0,81,0.00,,,0.00,18.000000,,2013-12-15 23:02:00,
2013-12-15 18:12:00,8.0,3.0,-100.00,WNW,300,2.0,3.0,81,0.00,,,0.00,18.000000,,2013-12-15 23:12:00,
2013-12-15 18:42:00,9.0,5.0,-100.00,North,9,3.0,4.0,84,0.00,,,0.00,0.000000,,2013-12-15 23:42:00,
2013-12-15 18:53:00,9.0,5.0,-100.00,North,9,3.0,4.0,84,0.00,,,0.00,0.000000,,2013-12-15 23:53:00,
2013-12-15 19:02:00,9.0,5.0,-100.00,North,9,3.0,4.0,84,0.00,,,0.00,0.000000,,2013-12-16 00:02:00,
2013-12-15 19:11:00,9.0,5.0,-100.00,North,9,3.0,4.0,84,0.00,,,0.00,0.000000,,2013-12-16 00:11:00,
2013-12-15 19:42:00,9.0,3.0,-100.00,NNE,20,4.0,7.0,77,0.00,,,0.00,0.000000,,2013-12-16 00:42:00,
2013-12-15 19:52:00,9.0,3.0,-100.00,NNE,20,4.0,7.0,77,0.00,,,0.00,0.000000,,2013-12-16 00:52:00,
2013-12-15 20:02:00,9.0,3.0,-100.00,NNE,20,4.0,7.0,77,0.00,,,0.00,0.000000,,2013-12-16 01:02:00,
2013-12-15 20:11:00,9.0,3.0,-100.00,NNE,20,4.0,7.0,77,0.00,,,0.00,0.000000,,2013-12-16 01:11:00,
2013-12-15 20:42:00,5.0,0.0,-100.00,NNE,12,4.0,8.0,79,0.00,,,0.00,0.000000,,2013-12-16 01:42:00,
2013-12-15 20:52:00,5.0,0.0,-100.00,NNE,12,4.0,8.0,79,0.00,,,0.00,0.000000,,2013-12-16 01:52:00,
2013-12-15 21:02:00,5.0,0.0,-100.00,NNE,12,4.0,8.0,79,0.00,,,0.00,0.000000,,2013-12-16 02:02:00,
2013-12-15 21:11:00,5.0,0.0,-100.00,NNE,12,4.0,8.0,79,0.00,,,0.00,0.000000,,2013-12-16 02:11:00,
2013-12-15 21:42:00,3.0,-3.0,-100.00,NNE,16,6.0,8.0,75,0.00,,,0.00,0.000000,,2013-12-16 02:42:00,
2013-12-15 21:52:00,3.0,-3.0,-100.00,NNE,16,6.0,8.0,75,0.00,,,0.00,0.000000,,2013-12-16 02:52:00,
2013-12-15 22:02:00,3.0,-3.0,-100.00,NNE,16,6.0,8.0,75,0.00,,,0.00,0.000000,,2013-12-16 03:02:00,
2013-12-15 22:11:00,3.0,-3.0,-100.00,NNE,16,6.0,8.0,75,0.00,,,0.00,0.000000,,2013-12-16 03:11:00,
2013-12-15 22:44:00,1.0,-6.0,-100.00,NNE,17,6.0,10.0,73,0.00,,,0.00,0.000000,,2013-12-16 03:44:00,
2013-12-15 22:54:00,1.0,-6.0,-100.00,NNE,17,6.0,10.0,73,0.00,,,0.00,0.000000,,2013-12-16 03:54:00,
2013-12-15 23:03:00,1.0,-6.0,-100.00,NNE,17,6.0,10.0,73,0.00,,,0.00,0.000000,,2013-12-16 04:03:00,
2013-12-15 23:13:00,1.0,-6.0,-100.00,NNE,17,6.0,10.0,73,0.00,,,0.00,0.000000,,2013-12-16 04:13:00,
2013-12-15 23:43:00,0.0,-7.0,-100.00,NNE,30,6.0,9.0,71,0.00,,,0.00,0.000000,,2013-12-16 04:43:00,
2013-12-15 23:53:00,0.0,-7.0,-100.00,NNE,30,6.0,9.0,71,0.00,,,0.00,0.000000,,2013-12-16 04:53:00,